Location: St. Louis
(38.6270°N, 90.1994°W)
Time: 02:21:17
(UTC-06:00)

Transit 2A - Pass Details

Date: 30 November 2021
Orbit: 591 x 966 km, 66.7° (Epoch: 24 January)

Event Time Altitude Azimuth Distance (km) Brightness Sun altitude
Rises 01:34:00 0° 232° (SW) 3,249 - -61.9°
Reaches altitude 10° 01:36:28 10° 240° (WSW) 2,384 - -61.5°
Maximum altitude 01:41:35 37° 308° (NW) 1,307 - -60.6°
Drops below altitude 10° 01:47:12 10° 15° (NNE) 2,613 - -59.7°
Sets 01:50:02 0° 23° (NNE) 3,599 - -59.2°
